Year,Month,Day,Hour,Minute,Value (Times are PST for temperature in C)
2016,08,27,00,00,24.40
2016,08,27,00,01,24.40
2016,08,27,00,02,24.40
2016,08,27,00,03,24.40
2016,08,27,00,04,24.40
2016,08,27,00,05,24.40
2016,08,27,00,06,24.30
2016,08,27,00,07,24.30
2016,08,27,00,08,24.30
2016,08,27,00,09,24.30
2016,08,27,00,10,24.30
2016,08,27,00,11,24.30
2016,08,27,00,12,24.30
2016,08,27,00,13,24.30
2016,08,27,00,14,24.30
2016,08,27,00,15,24.30
2016,08,27,00,16,24.30
2016,08,27,00,17,24.30
2016,08,27,00,18,24.30
2016,08,27,00,19,24.30
2016,08,27,00,20,24.20
2016,08,27,00,21,24.20
2016,08,27,00,22,24.20
2016,08,27,00,23,24.20
2016,08,27,00,24,24.10
2016,08,27,00,25,24.10
2016,08,27,00,26,24.10
2016,08,27,00,27,24.10
2016,08,27,00,28,24.10
2016,08,27,00,29,24.10
2016,08,27,00,30,24.10
2016,08,27,00,31,24.10
2016,08,27,00,32,24.10
2016,08,27,00,33,24.20
2016,08,27,00,34,24.20
2016,08,27,00,35,24.30
2016,08,27,00,36,24.30
2016,08,27,00,37,24.30
2016,08,27,00,38,24.30
2016,08,27,00,39,24.30
2016,08,27,00,40,24.30
2016,08,27,00,41,24.30
2016,08,27,00,42,24.30
2016,08,27,00,43,24.30
2016,08,27,00,44,24.20
2016,08,27,00,45,24.20
2016,08,27,00,46,24.20
2016,08,27,00,47,24.10
2016,08,27,00,48,24.10
2016,08,27,00,49,24.00
2016,08,27,00,50,24.00
2016,08,27,00,51,23.90
2016,08,27,00,52,23.80
2016,08,27,00,53,23.80
2016,08,27,00,54,23.70
2016,08,27,00,55,23.60
2016,08,27,00,56,23.60
2016,08,27,00,57,23.60
2016,08,27,00,58,23.50
2016,08,27,00,59,23.50
2016,08,27,01,00,23.40
2016,08,27,01,01,23.40
2016,08,27,01,02,23.40
2016,08,27,01,03,23.40
2016,08,27,01,04,23.40
2016,08,27,01,05,23.40
2016,08,27,01,06,23.30
2016,08,27,01,07,23.30
2016,08,27,01,08,23.30
2016,08,27,01,09,23.30
2016,08,27,01,10,23.30
2016,08,27,01,11,23.30
2016,08,27,01,12,23.30
2016,08,27,01,13,23.30
2016,08,27,01,14,23.30
2016,08,27,01,15,23.30
2016,08,27,01,16,23.30
2016,08,27,01,17,23.30
2016,08,27,01,18,23.30
2016,08,27,01,19,23.30
2016,08,27,01,20,23.30
2016,08,27,01,21,23.30
2016,08,27,01,22,23.30
2016,08,27,01,23,23.20
2016,08,27,01,24,23.20
2016,08,27,01,25,23.20
2016,08,27,01,26,23.20
2016,08,27,01,27,23.20
2016,08,27,01,28,23.10
2016,08,27,01,29,23.10
2016,08,27,01,30,23.10
2016,08,27,01,31,23.10
2016,08,27,01,32,23.00
2016,08,27,01,33,23.00
2016,08,27,01,34,23.00
2016,08,27,01,35,23.00
2016,08,27,01,36,23.00
2016,08,27,01,37,23.00
2016,08,27,01,38,22.90
2016,08,27,01,39,22.90
2016,08,27,01,40,22.90
2016,08,27,01,41,22.90
2016,08,27,01,42,22.90
2016,08,27,01,43,22.90
2016,08,27,01,44,22.90
2016,08,27,01,45,22.90
2016,08,27,01,46,22.90
2016,08,27,01,47,22.90
2016,08,27,01,48,22.90
2016,08,27,01,49,22.90
2016,08,27,01,50,22.90
2016,08,27,01,51,22.90
2016,08,27,01,52,22.90
2016,08,27,01,53,22.80
2016,08,27,01,54,22.80
2016,08,27,01,55,22.90
2016,08,27,01,56,22.90
2016,08,27,01,57,22.90
2016,08,27,01,58,23.00
2016,08,27,01,59,23.00
2016,08,27,02,00,23.10
2016,08,27,02,01,23.10
2016,08,27,02,02,23.20
2016,08,27,02,03,23.20
2016,08,27,02,04,23.30
2016,08,27,02,05,23.30
2016,08,27,02,06,23.40
2016,08,27,02,07,23.40
2016,08,27,02,08,23.40
2016,08,27,02,09,23.40
2016,08,27,02,10,23.40
2016,08,27,02,11,23.40
2016,08,27,02,12,23.40
2016,08,27,02,13,23.40
2016,08,27,02,14,23.40
2016,08,27,02,15,23.50
2016,08,27,02,16,23.50
2016,08,27,02,17,23.40
2016,08,27,02,18,23.40
2016,08,27,02,19,23.40
2016,08,27,02,20,23.40
2016,08,27,02,21,23.40
2016,08,27,02,22,23.50
2016,08,27,02,23,23.50
2016,08,27,02,24,23.50
2016,08,27,02,25,23.50
2016,08,27,02,26,23.50
2016,08,27,02,27,23.50
2016,08,27,02,28,23.50
2016,08,27,02,29,23.50
2016,08,27,02,30,23.50
2016,08,27,02,31,23.50
2016,08,27,02,32,23.40
2016,08,27,02,33,23.40
2016,08,27,02,34,23.40
2016,08,27,02,35,23.40
2016,08,27,02,36,23.40
2016,08,27,02,37,23.40
2016,08,27,02,38,23.40
2016,08,27,02,39,23.50
2016,08,27,02,40,23.50
2016,08,27,02,41,23.60
2016,08,27,02,42,23.60
2016,08,27,02,43,23.60
2016,08,27,02,44,23.60
2016,08,27,02,45,23.70
2016,08,27,02,46,23.70
2016,08,27,02,47,23.70
2016,08,27,02,48,23.70
2016,08,27,02,49,23.70
2016,08,27,02,50,23.70
2016,08,27,02,51,23.70
2016,08,27,02,52,23.70
2016,08,27,02,53,23.70
2016,08,27,02,54,23.70
2016,08,27,02,55,23.70
2016,08,27,02,56,23.80
2016,08,27,02,57,23.80
2016,08,27,02,58,23.80
2016,08,27,02,59,23.90
2016,08,27,03,00,23.90
2016,08,27,03,01,23.90
2016,08,27,03,02,24.00
2016,08,27,03,03,24.00
2016,08,27,03,04,24.00
2016,08,27,03,05,24.00
2016,08,27,03,06,24.00
2016,08,27,03,07,24.00
2016,08,27,03,08,23.90
2016,08,27,03,09,23.90
2016,08,27,03,10,23.90
2016,08,27,03,11,23.80
2016,08,27,03,12,23.80
2016,08,27,03,13,23.70
2016,08,27,03,14,23.60
2016,08,27,03,15,23.50
2016,08,27,03,16,23.50
2016,08,27,03,17,23.40
2016,08,27,03,18,23.30
2016,08,27,03,19,23.30
2016,08,27,03,20,23.20
2016,08,27,03,21,23.10
2016,08,27,03,22,23.00
2016,08,27,03,23,23.00
2016,08,27,03,24,22.90
2016,08,27,03,25,22.80
2016,08,27,03,26,22.70
2016,08,27,03,27,22.60
2016,08,27,03,28,22.50
2016,08,27,03,29,22.40
2016,08,27,03,30,22.30
2016,08,27,03,31,22.20
2016,08,27,03,32,22.10
2016,08,27,03,33,22.10
2016,08,27,03,34,22.00
2016,08,27,03,35,21.90
2016,08,27,03,36,21.80
2016,08,27,03,37,21.80
2016,08,27,03,38,21.70
2016,08,27,03,39,21.60
2016,08,27,03,40,21.60
2016,08,27,03,41,21.50
2016,08,27,03,42,21.50
2016,08,27,03,43,21.40
2016,08,27,03,44,21.40
2016,08,27,03,45,21.30
2016,08,27,03,46,21.30
2016,08,27,03,47,21.20
2016,08,27,03,48,21.20
2016,08,27,03,49,21.10
2016,08,27,03,50,21.10
2016,08,27,03,51,21.00
2016,08,27,03,52,20.90
2016,08,27,03,53,20.80
2016,08,27,03,54,20.70
2016,08,27,03,55,20.50
2016,08,27,03,56,20.40
2016,08,27,03,57,20.30
2016,08,27,03,58,20.20
2016,08,27,03,59,20.10
2016,08,27,04,00,20.00
2016,08,27,04,01,19.90
2016,08,27,04,02,19.80
2016,08,27,04,03,19.80
2016,08,27,04,04,19.70
2016,08,27,04,05,19.60
2016,08,27,04,06,19.60
2016,08,27,04,07,19.50
2016,08,27,04,08,19.50
2016,08,27,04,09,19.40
2016,08,27,04,10,19.40
2016,08,27,04,11,19.40
2016,08,27,04,12,19.30
2016,08,27,04,13,19.30
2016,08,27,04,14,19.30
2016,08,27,04,15,19.20
2016,08,27,04,16,19.20
2016,08,27,04,17,19.20
2016,08,27,04,18,19.20
2016,08,27,04,19,19.10
2016,08,27,04,20,19.10
2016,08,27,04,21,19.00
2016,08,27,04,22,18.90
2016,08,27,04,23,18.80
2016,08,27,04,24,18.80
2016,08,27,04,25,18.60
2016,08,27,04,26,18.50
2016,08,27,04,27,18.50
2016,08,27,04,28,18.30
2016,08,27,04,29,18.30
2016,08,27,04,30,18.10
2016,08,27,04,31,18.00
2016,08,27,04,32,18.00
2016,08,27,04,33,17.90
2016,08,27,04,34,17.80
2016,08,27,04,35,17.70
2016,08,27,04,36,17.70
2016,08,27,04,37,17.70
2016,08,27,04,38,17.70
2016,08,27,04,39,17.70
2016,08,27,04,40,17.70
2016,08,27,04,41,17.60
2016,08,27,04,42,17.60
2016,08,27,04,43,17.60
2016,08,27,04,44,17.50
2016,08,27,04,45,17.50
2016,08,27,04,46,17.50
2016,08,27,04,47,17.40
2016,08,27,04,48,17.40
2016,08,27,04,49,17.40
2016,08,27,04,50,17.30
2016,08,27,04,51,17.30
2016,08,27,04,52,17.30
2016,08,27,04,53,17.20
2016,08,27,04,54,17.20
2016,08,27,04,55,17.20
2016,08,27,04,56,17.20
2016,08,27,04,57,17.10
2016,08,27,04,58,17.10
2016,08,27,04,59,17.00
2016,08,27,05,00,17.00
2016,08,27,05,01,17.00
2016,08,27,05,02,16.90
2016,08,27,05,03,16.90
2016,08,27,05,04,16.90
2016,08,27,05,05,17.00
2016,08,27,05,06,17.00
2016,08,27,05,07,17.20
2016,08,27,05,08,17.40
2016,08,27,05,09,17.60
2016,08,27,05,10,17.80
2016,08,27,05,11,18.00
2016,08,27,05,12,18.30
2016,08,27,05,13,18.60
2016,08,27,05,14,18.80
2016,08,27,05,15,19.10
2016,08,27,05,16,19.40
2016,08,27,05,17,19.60
2016,08,27,05,18,19.80
2016,08,27,05,19,19.70
2016,08,27,05,20,19.60
2016,08,27,05,21,19.50
2016,08,27,05,22,19.30
2016,08,27,05,23,19.20
2016,08,27,05,24,19.30
2016,08,27,05,25,19.50
2016,08,27,05,26,19.70
2016,08,27,05,27,19.90
2016,08,27,05,28,20.10
2016,08,27,05,29,20.20
2016,08,27,05,30,20.30
2016,08,27,05,31,20.50
2016,08,27,05,32,20.60
2016,08,27,05,33,20.60
2016,08,27,05,34,20.70
2016,08,27,05,35,20.80
2016,08,27,05,36,20.80
2016,08,27,05,37,20.80
2016,08,27,05,38,20.90
2016,08,27,05,39,20.90
2016,08,27,05,40,20.90
2016,08,27,05,41,20.80
2016,08,27,05,42,20.80
2016,08,27,05,43,20.80
2016,08,27,05,44,20.80
2016,08,27,05,45,20.80
2016,08,27,05,46,20.80
2016,08,27,05,47,20.70
2016,08,27,05,48,20.60
2016,08,27,05,49,20.50
2016,08,27,05,50,20.40
2016,08,27,05,51,20.30
2016,08,27,05,52,20.20
2016,08,27,05,53,20.10
2016,08,27,05,54,20.10
2016,08,27,05,55,20.10
2016,08,27,05,56,20.10
2016,08,27,05,57,20.10
2016,08,27,05,58,20.00
2016,08,27,05,59,20.00
2016,08,27,06,00,19.90
2016,08,27,06,01,19.90
2016,08,27,06,02,19.80
2016,08,27,06,03,19.80
2016,08,27,06,04,19.70
2016,08,27,06,05,19.70
2016,08,27,06,06,19.60
2016,08,27,06,07,19.60
2016,08,27,06,08,19.60
2016,08,27,06,09,19.50
2016,08,27,06,10,19.50
2016,08,27,06,11,19.40
2016,08,27,06,12,19.40
2016,08,27,06,13,19.40
2016,08,27,06,14,19.30
2016,08,27,06,15,19.30
2016,08,27,06,16,19.20
2016,08,27,06,17,19.20
2016,08,27,06,18,19.10
2016,08,27,06,19,19.00
2016,08,27,06,20,19.00
2016,08,27,06,21,18.90
2016,08,27,06,22,18.80
2016,08,27,06,23,18.80
2016,08,27,06,24,18.70
2016,08,27,06,25,18.60
2016,08,27,06,26,18.60
2016,08,27,06,27,18.50
2016,08,27,06,28,18.50
2016,08,27,06,29,18.40
2016,08,27,06,30,18.40
2016,08,27,06,31,18.30
2016,08,27,06,32,18.30
2016,08,27,06,33,18.20
2016,08,27,06,34,18.20
2016,08,27,06,35,18.20
2016,08,27,06,36,18.10
2016,08,27,06,37,18.10
2016,08,27,06,38,18.10
2016,08,27,06,39,18.00
2016,08,27,06,40,18.00
2016,08,27,06,41,17.90
2016,08,27,06,42,17.90
2016,08,27,06,43,17.90
2016,08,27,06,44,17.90
2016,08,27,06,45,17.80
2016,08,27,06,46,17.80
2016,08,27,06,47,17.80
2016,08,27,06,48,17.70
2016,08,27,06,49,17.70
2016,08,27,06,50,17.70
2016,08,27,06,51,17.70
2016,08,27,06,52,17.70
2016,08,27,06,53,17.70
2016,08,27,06,54,17.60
2016,08,27,06,55,17.60
2016,08,27,06,56,17.60
2016,08,27,06,57,17.60
2016,08,27,06,58,17.50
2016,08,27,06,59,17.50
2016,08,27,07,00,17.50
2016,08,27,07,01,17.50
2016,08,27,07,02,17.50
2016,08,27,07,03,17.40
2016,08,27,07,04,17.40
2016,08,27,07,05,17.40
2016,08,27,07,06,17.40
2016,08,27,07,07,17.40
2016,08,27,07,08,17.40
2016,08,27,07,09,17.40
2016,08,27,07,10,17.40
2016,08,27,07,11,17.40
2016,08,27,07,12,17.40
2016,08,27,07,13,17.40
2016,08,27,07,14,17.40
2016,08,27,07,15,17.40
2016,08,27,07,16,17.40
2016,08,27,07,17,17.40
2016,08,27,07,18,17.40
2016,08,27,07,19,17.40
2016,08,27,07,20,17.40
2016,08,27,07,21,17.40
2016,08,27,07,22,17.40
2016,08,27,07,23,17.40
2016,08,27,07,24,17.40
2016,08,27,07,25,17.40
2016,08,27,07,26,17.40
2016,08,27,07,27,17.40
2016,08,27,07,28,17.40
2016,08,27,07,29,17.40
2016,08,27,07,30,17.40
2016,08,27,07,31,17.40
2016,08,27,07,32,17.40
2016,08,27,07,33,17.30
2016,08,27,07,34,17.40
2016,08,27,07,35,17.40
2016,08,27,07,36,17.30
2016,08,27,07,37,17.30
2016,08,27,07,38,17.30
2016,08,27,07,39,17.30
2016,08,27,07,40,17.30
2016,08,27,07,41,17.30
2016,08,27,07,42,17.30
2016,08,27,07,43,17.30
2016,08,27,07,44,17.30
2016,08,27,07,45,17.30
2016,08,27,07,46,17.30
2016,08,27,07,47,17.30
2016,08,27,07,48,17.30
2016,08,27,07,49,17.30
2016,08,27,07,50,17.30
2016,08,27,07,51,17.30
2016,08,27,07,52,17.30
2016,08,27,07,53,17.30
2016,08,27,07,54,17.30
2016,08,27,07,55,17.40
2016,08,27,07,56,17.40
2016,08,27,07,57,17.40
2016,08,27,07,58,17.40
2016,08,27,07,59,17.40
2016,08,27,08,00,17.40
2016,08,27,08,01,17.50
2016,08,27,08,02,17.50
2016,08,27,08,03,17.60
2016,08,27,08,04,17.60
2016,08,27,08,05,17.60
2016,08,27,08,06,17.60
2016,08,27,08,07,17.70
2016,08,27,08,08,17.70
2016,08,27,08,09,17.70
2016,08,27,08,10,17.70
2016,08,27,08,11,17.70
2016,08,27,08,12,17.80
2016,08,27,08,13,17.80
2016,08,27,08,14,17.80
2016,08,27,08,15,17.80
2016,08,27,08,16,17.80
2016,08,27,08,17,17.90
2016,08,27,08,18,17.90
2016,08,27,08,19,17.90
2016,08,27,08,20,17.90
2016,08,27,08,21,17.90
2016,08,27,08,22,17.90
2016,08,27,08,23,17.90
2016,08,27,08,24,17.90
2016,08,27,08,25,17.90
2016,08,27,08,26,17.90
2016,08,27,08,27,17.90
2016,08,27,08,28,17.90
2016,08,27,08,29,17.90
2016,08,27,08,30,17.90
2016,08,27,08,31,17.90
2016,08,27,08,32,17.90
2016,08,27,08,33,17.90
2016,08,27,08,34,17.90
2016,08,27,08,35,17.90
2016,08,27,08,36,17.90
2016,08,27,08,37,17.90
2016,08,27,08,38,17.90
2016,08,27,08,39,17.90
2016,08,27,08,40,17.90
2016,08,27,08,41,17.90
2016,08,27,08,42,17.90
2016,08,27,08,43,17.90
2016,08,27,08,44,17.90
2016,08,27,08,45,17.90
2016,08,27,08,46,17.90
2016,08,27,08,47,17.90
2016,08,27,08,48,18.00
2016,08,27,08,49,18.00
2016,08,27,08,50,18.00
2016,08,27,08,51,18.00
2016,08,27,08,52,18.10
2016,08,27,08,53,18.10
2016,08,27,08,54,18.10
2016,08,27,08,55,18.20
2016,08,27,08,56,18.20
2016,08,27,08,57,18.20
2016,08,27,08,58,18.20
2016,08,27,08,59,18.20
2016,08,27,09,00,18.30
2016,08,27,09,01,18.30
2016,08,27,09,02,18.40
2016,08,27,09,03,18.40
2016,08,27,09,04,18.50
2016,08,27,09,05,18.50
2016,08,27,09,06,18.60
2016,08,27,09,07,18.60
2016,08,27,09,08,18.60
2016,08,27,09,09,18.60
2016,08,27,09,10,18.60
2016,08,27,09,11,18.60
2016,08,27,09,12,18.60
2016,08,27,09,13,18.60
2016,08,27,09,14,18.50
2016,08,27,09,15,18.50
2016,08,27,09,16,18.40
2016,08,27,09,17,18.30
2016,08,27,09,18,18.20
2016,08,27,09,19,18.10
2016,08,27,09,20,18.10
2016,08,27,09,21,18.00
2016,08,27,09,22,18.00
2016,08,27,09,23,18.00
2016,08,27,09,24,18.00
2016,08,27,09,25,18.00
2016,08,27,09,26,18.10
2016,08,27,09,27,18.10
2016,08,27,09,28,18.10
2016,08,27,09,29,18.10
2016,08,27,09,30,18.20
2016,08,27,09,31,18.30
2016,08,27,09,32,18.30
2016,08,27,09,33,18.40
2016,08,27,09,34,18.40
2016,08,27,09,35,18.40
2016,08,27,09,36,18.50
2016,08,27,09,37,18.50
2016,08,27,09,38,18.60
2016,08,27,09,39,18.60
2016,08,27,09,40,18.60
2016,08,27,09,41,18.70
2016,08,27,09,42,18.80
2016,08,27,09,43,18.80
2016,08,27,09,44,18.80
2016,08,27,09,45,18.90
2016,08,27,09,46,18.90
2016,08,27,09,47,19.00
2016,08,27,09,48,19.10
2016,08,27,09,49,19.10
2016,08,27,09,50,19.20
2016,08,27,09,51,19.30
2016,08,27,09,52,19.30
2016,08,27,09,53,19.30
2016,08,27,09,54,19.40
2016,08,27,09,55,19.40
2016,08,27,09,56,19.30
2016,08,27,09,57,19.30
2016,08,27,09,58,19.30
2016,08,27,09,59,19.30
2016,08,27,10,00,19.30
2016,08,27,10,01,19.30
2016,08,27,10,02,19.30
2016,08,27,10,03,19.30
2016,08,27,10,04,19.30
2016,08,27,10,05,19.30
2016,08,27,10,06,19.30
2016,08,27,10,07,19.40
2016,08,27,10,08,19.40
2016,08,27,10,09,19.50
2016,08,27,10,10,19.50
2016,08,27,10,11,19.60
2016,08,27,10,12,19.50
2016,08,27,10,13,19.50
2016,08,27,10,14,19.40
2016,08,27,10,15,19.30
2016,08,27,10,16,19.20
2016,08,27,10,17,19.20
2016,08,27,10,18,19.00
2016,08,27,10,19,18.90
2016,08,27,10,20,18.80
2016,08,27,10,21,18.80
2016,08,27,10,22,18.70
2016,08,27,10,23,18.70
2016,08,27,10,24,18.60
2016,08,27,10,25,18.60
2016,08,27,10,26,18.50
2016,08,27,10,27,18.50
2016,08,27,10,28,18.40
2016,08,27,10,29,18.40
2016,08,27,10,30,18.30
2016,08,27,10,31,18.30
2016,08,27,10,32,18.30
2016,08,27,10,33,18.30
2016,08,27,10,34,18.30
2016,08,27,10,35,18.30
2016,08,27,10,36,18.30
2016,08,27,10,37,18.30
2016,08,27,10,38,18.40
2016,08,27,10,39,18.30
2016,08,27,10,40,18.30
2016,08,27,10,41,18.30
2016,08,27,10,42,18.30
2016,08,27,10,43,18.30
2016,08,27,10,44,18.30
2016,08,27,10,45,18.30
2016,08,27,10,46,18.30
2016,08,27,10,47,18.30
2016,08,27,10,48,18.30
2016,08,27,10,49,18.40
2016,08,27,10,50,18.50
2016,08,27,10,51,18.60
2016,08,27,10,52,18.60
2016,08,27,10,53,18.70
2016,08,27,10,54,18.80
2016,08,27,10,55,18.90
2016,08,27,10,56,19.00
2016,08,27,10,57,19.10
2016,08,27,10,58,19.20
2016,08,27,10,59,19.20
2016,08,27,11,00,19.30
2016,08,27,11,01,19.30
2016,08,27,11,02,19.30
2016,08,27,11,03,19.30
2016,08,27,11,04,19.30
2016,08,27,11,05,19.40
2016,08,27,11,06,19.40
2016,08,27,11,07,19.50
2016,08,27,11,08,19.60
2016,08,27,11,09,19.70
2016,08,27,11,10,19.70
2016,08,27,11,11,19.70
2016,08,27,11,12,19.70
2016,08,27,11,13,19.60
2016,08,27,11,14,19.60
2016,08,27,11,15,19.60
2016,08,27,11,16,19.60
2016,08,27,11,17,19.60
2016,08,27,11,18,19.70
2016,08,27,11,19,19.70
2016,08,27,11,20,19.80
2016,08,27,11,21,19.80
2016,08,27,11,22,19.90
2016,08,27,11,23,20.00
2016,08,27,11,24,20.10
2016,08,27,11,25,20.10
2016,08,27,11,26,20.20
2016,08,27,11,27,20.30
2016,08,27,11,28,20.40
2016,08,27,11,29,20.40
2016,08,27,11,30,20.40
2016,08,27,11,31,20.40
2016,08,27,11,32,20.40
2016,08,27,11,33,20.30
2016,08,27,11,34,20.30
2016,08,27,11,35,20.30
2016,08,27,11,36,20.30
2016,08,27,11,37,20.30
2016,08,27,11,38,20.30
2016,08,27,11,39,20.40
2016,08,27,11,40,20.40
2016,08,27,11,41,20.40
2016,08,27,11,42,20.40
2016,08,27,11,43,20.40
2016,08,27,11,44,20.40
2016,08,27,11,45,20.40
2016,08,27,11,46,20.40
2016,08,27,11,47,20.40
2016,08,27,11,48,20.40
2016,08,27,11,49,20.40
2016,08,27,11,50,20.30
2016,08,27,11,51,20.20
2016,08,27,11,52,20.20
2016,08,27,11,53,20.10
2016,08,27,11,54,20.10
2016,08,27,11,55,20.00
2016,08,27,11,56,19.90
2016,08,27,11,57,19.90
2016,08,27,11,58,19.80
2016,08,27,11,59,19.90
2016,08,27,12,00,19.80
2016,08,27,12,01,19.80
2016,08,27,12,02,19.70
2016,08,27,12,03,19.70
2016,08,27,12,04,19.70
2016,08,27,12,05,19.70
2016,08,27,12,06,19.70
2016,08,27,12,07,19.70
2016,08,27,12,08,19.70
2016,08,27,12,09,19.80
2016,08,27,12,10,19.80
2016,08,27,12,11,19.60
2016,08,27,12,12,19.50
2016,08,27,12,13,19.40
2016,08,27,12,14,19.30
2016,08,27,12,15,19.20
2016,08,27,12,16,19.20
2016,08,27,12,17,19.20
2016,08,27,12,18,19.30
2016,08,27,12,19,19.30
2016,08,27,12,20,19.30
2016,08,27,12,21,19.40
2016,08,27,12,22,19.40
2016,08,27,12,23,19.30
2016,08,27,12,24,19.30
2016,08,27,12,25,19.40
2016,08,27,12,26,19.40
2016,08,27,12,27,19.40
2016,08,27,12,28,19.40
2016,08,27,12,29,19.40
2016,08,27,12,30,19.40
2016,08,27,12,31,19.30
2016,08,27,12,32,19.20
2016,08,27,12,33,19.10
2016,08,27,12,34,19.10
2016,08,27,12,35,19.10
2016,08,27,12,36,19.10
2016,08,27,12,37,19.10
2016,08,27,12,38,19.10
2016,08,27,12,39,19.20
2016,08,27,12,40,19.20
2016,08,27,12,41,19.30
2016,08,27,12,42,19.30
2016,08,27,12,43,19.40
2016,08,27,12,44,19.40
2016,08,27,12,45,19.40
2016,08,27,12,46,19.50
2016,08,27,12,47,19.60
2016,08,27,12,48,19.70
2016,08,27,12,49,19.80
2016,08,27,12,50,19.80
2016,08,27,12,51,19.80
2016,08,27,12,52,19.90
2016,08,27,12,53,19.90
2016,08,27,12,54,19.90
2016,08,27,12,55,19.90
2016,08,27,12,56,20.00
2016,08,27,12,57,20.00
2016,08,27,12,58,20.10
2016,08,27,12,59,20.10
2016,08,27,13,00,20.10
2016,08,27,13,01,20.10
2016,08,27,13,02,20.10
2016,08,27,13,03,20.10
2016,08,27,13,04,20.10
2016,08,27,13,05,20.10
2016,08,27,13,06,20.10
2016,08,27,13,07,20.10
2016,08,27,13,08,20.00
2016,08,27,13,09,19.90
2016,08,27,13,10,19.80
2016,08,27,13,11,19.80
2016,08,27,13,12,19.80
2016,08,27,13,13,19.60
2016,08,27,13,14,19.60
2016,08,27,13,15,19.60
2016,08,27,13,16,19.60
2016,08,27,13,17,19.70
2016,08,27,13,18,19.70
2016,08,27,13,19,19.80
2016,08,27,13,20,19.90
2016,08,27,13,21,20.00
2016,08,27,13,22,20.10
2016,08,27,13,23,20.10
2016,08,27,13,24,20.10
2016,08,27,13,25,20.10
2016,08,27,13,26,20.10
2016,08,27,13,27,20.10
2016,08,27,13,28,20.10
2016,08,27,13,29,20.10
2016,08,27,13,30,20.10
2016,08,27,13,31,20.10
2016,08,27,13,32,20.00
2016,08,27,13,33,20.00
2016,08,27,13,34,20.10
2016,08,27,13,35,20.20
2016,08,27,13,36,20.30
2016,08,27,13,37,20.30
2016,08,27,13,38,20.30
2016,08,27,13,39,20.30
2016,08,27,13,40,20.30
2016,08,27,13,41,20.20
2016,08,27,13,42,20.10
2016,08,27,13,43,20.00
2016,08,27,13,44,20.00
2016,08,27,13,45,19.90
2016,08,27,13,46,19.80
2016,08,27,13,47,19.70
2016,08,27,13,48,19.70
2016,08,27,13,49,19.70
2016,08,27,13,50,19.70
2016,08,27,13,51,19.70
2016,08,27,13,52,19.70
2016,08,27,13,53,19.70
2016,08,27,13,54,19.70
2016,08,27,13,55,19.60
2016,08,27,13,56,19.60
2016,08,27,13,57,19.60
2016,08,27,13,58,19.60
2016,08,27,13,59,19.70
2016,08,27,14,00,19.80
2016,08,27,14,01,19.90
2016,08,27,14,02,20.00
2016,08,27,14,03,19.90
2016,08,27,14,04,19.80
2016,08,27,14,05,19.80
2016,08,27,14,06,19.70
2016,08,27,14,07,19.80
2016,08,27,14,08,19.80
2016,08,27,14,09,19.90
2016,08,27,14,10,20.00
2016,08,27,14,11,20.10
2016,08,27,14,12,20.20
2016,08,27,14,13,20.20
2016,08,27,14,14,20.30
2016,08,27,14,15,20.30
2016,08,27,14,16,20.30
2016,08,27,14,17,20.30
2016,08,27,14,18,20.40
2016,08,27,14,19,20.30
2016,08,27,14,20,20.30
2016,08,27,14,21,20.20
2016,08,27,14,22,20.20
2016,08,27,14,23,20.10
2016,08,27,14,24,19.90
2016,08,27,14,25,19.80
2016,08,27,14,26,19.80
2016,08,27,14,27,19.80
2016,08,27,14,28,19.80
2016,08,27,14,29,19.90
2016,08,27,14,30,19.90
2016,08,27,14,31,19.90
2016,08,27,14,32,19.90
2016,08,27,14,33,19.80
2016,08,27,14,34,19.80
2016,08,27,14,35,19.80
2016,08,27,14,36,19.80
2016,08,27,14,37,19.90
2016,08,27,14,38,19.90
2016,08,27,14,39,19.90
2016,08,27,14,40,19.90
2016,08,27,14,41,20.00
2016,08,27,14,42,19.90
2016,08,27,14,43,20.00
2016,08,27,14,44,20.00
2016,08,27,14,45,20.00
2016,08,27,14,46,20.00
2016,08,27,14,47,20.00
2016,08,27,14,48,20.00
2016,08,27,14,49,20.00
2016,08,27,14,50,20.10
2016,08,27,14,51,20.10
2016,08,27,14,52,20.20
2016,08,27,14,53,20.20
2016,08,27,14,54,20.20
2016,08,27,14,55,20.20
2016,08,27,14,56,20.20
2016,08,27,14,57,20.30
2016,08,27,14,58,20.40
2016,08,27,14,59,20.40
2016,08,27,15,00,20.40
2016,08,27,15,01,20.40
2016,08,27,15,02,20.50
2016,08,27,15,03,20.60
2016,08,27,15,04,20.60
2016,08,27,15,05,20.70
2016,08,27,15,06,20.80
2016,08,27,15,07,20.80
2016,08,27,15,08,20.70
2016,08,27,15,09,20.70
2016,08,27,15,10,20.70
2016,08,27,15,11,20.70
2016,08,27,15,12,20.80
2016,08,27,15,13,20.80
2016,08,27,15,14,20.70
2016,08,27,15,15,20.70
2016,08,27,15,16,20.70
2016,08,27,15,17,20.60
2016,08,27,15,18,20.40
2016,08,27,15,19,20.30
2016,08,27,15,20,20.30
2016,08,27,15,21,20.20
2016,08,27,15,22,20.10
2016,08,27,15,23,20.10
2016,08,27,15,24,20.20
2016,08,27,15,25,20.20
2016,08,27,15,26,20.20
2016,08,27,15,27,20.20
2016,08,27,15,28,20.10
2016,08,27,15,29,20.10
2016,08,27,15,30,20.10
2016,08,27,15,31,20.10
2016,08,27,15,32,20.10
2016,08,27,15,33,20.20
2016,08,27,15,34,20.20
2016,08,27,15,35,20.20
2016,08,27,15,36,20.10
2016,08,27,15,37,20.10
2016,08,27,15,38,20.10
2016,08,27,15,39,20.10
2016,08,27,15,40,20.20
2016,08,27,15,41,20.30
2016,08,27,15,42,20.40
2016,08,27,15,43,20.50
2016,08,27,15,44,20.60
2016,08,27,15,45,20.60
2016,08,27,15,46,20.60
2016,08,27,15,47,20.60
2016,08,27,15,48,20.60
2016,08,27,15,49,20.50
2016,08,27,15,50,20.50
2016,08,27,15,51,20.40
2016,08,27,15,52,20.30
2016,08,27,15,53,20.20
2016,08,27,15,54,20.20
2016,08,27,15,55,20.10
2016,08,27,15,56,20.10
2016,08,27,15,57,20.00
2016,08,27,15,58,19.90
2016,08,27,15,59,19.80
2016,08,27,16,00,19.90
2016,08,27,16,01,19.90
2016,08,27,16,02,19.90
2016,08,27,16,03,19.90
2016,08,27,16,04,20.00
2016,08,27,16,05,20.00
2016,08,27,16,06,20.00
2016,08,27,16,07,20.00
2016,08,27,16,08,20.00
2016,08,27,16,09,20.00
2016,08,27,16,10,20.10
2016,08,27,16,11,20.20
2016,08,27,16,12,20.30
2016,08,27,16,13,20.40
2016,08,27,16,14,20.40
2016,08,27,16,15,20.40
2016,08,27,16,16,20.40
2016,08,27,16,17,20.40
2016,08,27,16,18,20.30
2016,08,27,16,19,20.30
2016,08,27,16,20,20.30
2016,08,27,16,21,20.20
2016,08,27,16,22,20.20
2016,08,27,16,23,20.20
2016,08,27,16,24,20.20
2016,08,27,16,25,20.20
2016,08,27,16,26,20.20
2016,08,27,16,27,20.10
2016,08,27,16,28,20.10
2016,08,27,16,29,20.10
2016,08,27,16,30,20.10
2016,08,27,16,31,20.10
2016,08,27,16,32,20.10
2016,08,27,16,33,20.10
2016,08,27,16,34,20.10
2016,08,27,16,35,20.10
2016,08,27,16,36,20.20
2016,08,27,16,37,20.20
2016,08,27,16,38,20.20
2016,08,27,16,39,20.20
2016,08,27,16,40,20.30
2016,08,27,16,41,20.30
2016,08,27,16,42,20.30
2016,08,27,16,43,20.30
2016,08,27,16,44,20.20
2016,08,27,16,45,20.20
2016,08,27,16,46,20.20
2016,08,27,16,47,20.20
2016,08,27,16,48,20.20
2016,08,27,16,49,20.20
2016,08,27,16,50,20.30
2016,08,27,16,51,20.30
2016,08,27,16,52,20.30
2016,08,27,16,53,20.30
2016,08,27,16,54,20.30
2016,08,27,16,55,20.20
2016,08,27,16,56,20.20
2016,08,27,16,57,20.10
2016,08,27,16,58,20.10
2016,08,27,16,59,20.20
2016,08,27,17,00,20.20
2016,08,27,17,01,20.30
2016,08,27,17,02,20.20
2016,08,27,17,03,20.10
2016,08,27,17,04,20.00
2016,08,27,17,05,19.90
2016,08,27,17,06,19.80
2016,08,27,17,07,19.80
2016,08,27,17,08,19.80
2016,08,27,17,09,19.80
2016,08,27,17,10,19.80
2016,08,27,17,11,19.80
2016,08,27,17,12,19.70
2016,08,27,17,13,19.60
2016,08,27,17,14,19.50
2016,08,27,17,15,19.50
2016,08,27,17,16,19.40
2016,08,27,17,17,19.40
2016,08,27,17,18,19.20
2016,08,27,17,19,19.10